Location: ?????
(38.2579°N, 22.9711°E)
Time: 14:45:53
(UTC+00:00)

Cosmos 990 Rocket - Pass Details

Date: 13 December 2025
Orbit: 742 x 764 km, 74.0° (Epoch: 17 January)

Event Time Altitude Azimuth Distance (km) Brightness Sun altitude
Rises 15:42:57 0° 202° (SSW) 3,164 8.0 -6.9°
Reaches altitude 10° 15:45:18 10° 205° (SSW) 2,246 7.2 -7.3°
Maximum altitude 15:50:22 71° 289° (WNW) 789 4.3 -8.2°
Drops below altitude 10° 15:55:30 10° 14° (NNE) 2,272 6.1 -9.1°
Sets 15:57:53 0° 17° (NNE) 3,203 6.8 -9.6°
